Regional Weather Roundup
Issued by NWS

Home | Current Version | Previous Version | Graphics & Text | Print | Product List | Glossary On
Versions: 1 2 3 4 5 6 7 8 9 10 11 12 13 14 15 16 17 18 19 20 21 22 23 24 25 26 27 28 29 30 31 32 33 34 35 36 37 38 39 40 41 42 43 44 45 46 47 48 49 50
000
ASUS43 KFSD 040110
RWRSD

WEATHER ROUNDUP FOR SOUTH DAKOTA
NATIONAL WEATHER SERVICE SIOUX FALLS SD
800 PM CDT TUE MAY 03 2016

NOTE: "FAIR" INDICATES FEW OR NO CLOUDS BELOW 12,000 FEET WITH NO
SIGNIFICANT WEATHER AND/OR OBSTRUCTIONS TO VISIBILITY.


SDZ001>005-009-010-012>017-040200-
NORTHWEST AND NORTH CENTRAL SOUTH DAKOTA

CITY           SKY/WX    TMP DP  RH WIND       PRES   REMARKS
BUFFALO          N/A     73  37  27 N10       30.01S
FAITH            N/A     70  39  32 N13       30.02R
MOBRIDGE       CLEAR     71  40  32 N16       29.94R
$$

SDZ012>016-024>037-041>051-057-063-072>074-040200-
SOUTHWEST AND SOUTH CENTRAL SOUTH DAKOTA

CITY           SKY/WX    TMP DP  RH WIND       PRES   REMARKS
RAPID CTY ARPT CLEAR     69  39  33 N12       30.07S
PIERRE         CLEAR     71  43  36 N13       29.94R
CUSTER         PTCLDY    61  34  36 SW3       30.17R
ELLSWORTH AFB  CLEAR     71  40  32 N12       30.07S
PHILIP         CLEAR     70  47  43 N8        30.00S
PINE RIDGE     CLEAR     68  37  32 N9        30.08S
WINNER         FAIR      69  45  41 NW9       29.95F
$$

SDZ004>011-016>023-039-040-040200-
NORTHEAST SOUTH DAKOTA

CITY           SKY/WX    TMP DP  RH WIND       PRES   REMARKS
ABERDEEN       CLEAR     67  28  23 N17       29.92R
WATERTOWN      CLEAR     64  28  25 N18G29    29.87R
BROOKINGS      CLEAR     64  29  26 N17G25    29.85R
SISSETON         N/A     64  25  22 NE23G33   29.87R
$$

SDZ017-020-022-023-036>040-048>070-040200-
SOUTHEAST SOUTH DAKOTA

CITY           SKY/WX    TMP DP  RH WIND       PRES   REMARKS
SIOUX FALLS    PTCLDY    68  37  32 N21G30    29.82R
HURON          CLEAR     68  28  22 N17G28    29.89R
CHAMBERLAIN    CLEAR     72  44  36 NW10G16   29.92S
MITCHELL       CLEAR     70  42  36 N21       29.87R
YANKTON        CLEAR     66  46  48 W14       29.84F
$$

ABBREVIATIONS USED IN REMARKS
   TC - TEMPERATURE IN CELSIUS
  WCI - WIND CHILL INDEX
   HX - HEAT INDEX
  VSB - VISIBILITY





USA.gov is the U.S. government's official web portal to all federal, state and local government web resources and services.